Flag for Canada Weather past 2 weeks in Saint-Jérôme, Quebec, Canada

Now
64 °F

Passing clouds.


Feels Like: 64 °F
Forecast: 57 / 72 °F
Wind: 5 mph from Southwest

Location: Montreal / Mirabel

Current Time: Aug 3, 2015 at 11:49:01 PM

Latest Report: Aug 3, 2015 at 11:00 PM


Visibility: 25 mi

Pressure: 29.73 "Hg

Humidity: 88%

Dew point: 61 °F

Location of Saint-JérômeLocation

Historic Weather in Saint-Jérôme — Graph

°F

Saint-Jérôme temperature yesterday

Maximum temperature yesterday: 77 °F (at 2:00 PM)
Minimum temperature yesterday: 57 °F (at 4:00 AM)
Average temperature yesterday: 67 °F

Past Weeks' High & Low Weather Summary

 TemperatureHumidityPressure
High88 °F (Jul 29, 4:00 PM)100% (Jul 20, 1:00 AM)30.02 "Hg (Jul 20, 1:00 AM)
Low55 °F (Jul 22, 3:00 AM)47% (Jul 23, 3:00 PM)29.50 "Hg (Jul 21, 2:50 PM)
Average69 °F81%29.80 "Hg
* Reported Jul 19 10:00 PM — Aug 3 10:00 PM, Saint-Jérôme, Weather by CustomWeather, © 2015

Note: Actual official high and low records may vary slightly from our data, if they occured in-between our weather recording intervals... More about our weather records

Advertising

Saint-Jérôme weather history for previous 24 hours

 ConditionsComfort  
Time TempWeatherWind HumidityBarometerVisibility
10:00 PM
Mon, Aug 3
63 °FPassing clouds.No wind94%29.73 "Hg25 mi
9:00 PM63 °FPassing clouds.3 mph94%29.71 "Hg25 mi
8:00 PM70 °FPassing clouds.No wind78%29.69 "Hg45 mi
7:00 PM72 °FBroken clouds.7 mph73%29.67 "Hg45 mi
6:00 PM73 °FPartly sunny.5 mph74%29.67 "Hg45 mi
5:00 PM73 °FBroken clouds.8 mph69%29.66 "Hg45 mi
4:00 PM73 °FBroken clouds.10 mph74%29.68 "Hg45 mi
3:00 PM73 °FPartly sunny.10 mph74%29.68 "Hg45 mi
2:55 PM73 °FBroken clouds.6 mph78%29.69 "Hg45 mi
2:00 PM70 °FSprinkles. Mostly cloudy.7 mph83%29.70 "Hg15 mi
1:00 PM70 °FMostly cloudy.12 mph83%29.70 "Hg45 mi
12:00 PM70 °FPartly sunny.9 mph83%29.68 "Hg45 mi
11:00 AM68 °FSprinkles. More clouds than sun.8 mph88%29.67 "Hg45 mi
10:47 AM68 °FSprinkles. Cloudy.8 mph88%29.67 "Hg45 mi
10:00 AM66 °FSprinkles. Mostly cloudy.8 mph94%29.66 "Hg45 mi
9:00 AM66 °FSprinkles. Mostly cloudy.7 mph94%29.65 "Hg45 mi
8:00 AM66 °FMostly cloudy.5 mph94%29.63 "Hg45 mi
7:00 AM64 °FScattered showers. Mostly cloudy.2 mph100%29.61 "Hg45 mi
6:00 AM63 °FPassing clouds.No wind100%29.61 "Hg45 mi
5:00 AM63 °FPassing clouds.6 mph100%29.59 "Hg25 mi
4:00 AM63 °FThunderstorms. Overcast.3 mph100%29.64 "Hg20 mi
3:00 AM70 °FSprinkles. Mostly cloudy.6 mph69%29.66 "Hg25 mi
2:00 AM68 °FMostly cloudy.2 mph73%29.66 "Hg25 mi
1:00 AM68 °FPassing clouds.2 mph78%29.67 "Hg25 mi
11:00 PM
Sun, Aug 2
70 °FOvercast.6 mph69%29.67 "Hg25 mi
Weather by CustomWeather, © 2015

See weather overviewHow to use our weather pages